User: anonymous   Login
Location: Newark
(31.5350°N, 35.0986°E)
Time: 15:48:43
(UTC+00:00)
Language:

Altair - Orbit

View from above orbital plane
View from above orbital plane
View from above satellite
View from above satellite

Ground track
Ground track

The orbit data is extracted from the following two-line orbital elements,

1    50U 60009B   19264.35018464 -.00000107  00000-0 -21253-3 0  9999
2    50  47.2305 239.5773 0114115 241.0522 117.8784 12.20109566637692
Epoch (UTC): 21 September 2019 08:24:15
Eccentricity: 0.0114115
inclination: 47.2305°
perigee height: 1501 km
apogee height: 1683 km
right ascension of ascending node: 239.5773°
argument of perigee: 241.0522°
revolutions per day: 12.20109566
mean anomaly at epoch: 117.8784°
orbit number at epoch: 63769

The dashed part of the orbit path shows where the satellite is in the earth's shadow,  

DLR